2016-07-14 00:03:07 r, 19.47m,0000000001Hz,0000335093c,0000000.727s, 026.1C,00002191
2016-07-14 00:13:07 r, 19.69m,0000000001Hz,0000408009c,0000000.885s, 026.1C,00002191
2016-07-14 00:23:07 r, 19.66m,0000000001Hz,0000399810c,0000000.868s, 026.1C,00002191
2016-07-14 00:33:07 r, 19.84m,0000000001Hz,0000470570c,0000001.021s, 026.1C,00002191
2016-07-14 00:43:07 r, 19.73m,0000000001Hz,0000424089c,0000000.920s, 026.1C,00002191
2016-07-14 00:53:06 r, 19.71m,0000000001Hz,0000416334c,0000000.904s, 026.1C,00002191
2016-07-14 01:03:07 r, 19.93m,0000000001Hz,0000513649c,0000001.115s, 026.1C,00002191
2016-07-14 01:13:07 r, 19.92m,0000000001Hz,0000507496c,0000001.101s, 026.1C,00002191
2016-07-14 01:23:07 r, 19.91m,0000000001Hz,0000502934c,0000001.091s, 026.1C,00002191
2016-07-14 01:33:07 r, 19.98m,0000000001Hz,0000536563c,0000001.164s, 026.1C,00002191
2016-07-14 01:43:07 r, 19.93m,0000000001Hz,0000509670c,0000001.106s, 026.4C,00002191
2016-07-14 01:53:07 r, 20.08m,0000000000Hz,0000589499c,0000001.279s, 026.4C,00002191
2016-07-14 02:03:07 r, 19.95m,0000000001Hz,0000522252c,0000001.133s, 026.4C,00002191
2016-07-14 02:13:07 r, 20.09m,0000000001Hz,0000590478c,0000001.281s, 026.4C,00002191
2016-07-14 02:23:07 r, 19.87m,0000000001Hz,0000481572c,0000001.045s, 026.4C,00002191
2016-07-14 02:33:07 r, 20.17m,0000000000Hz,0000636631c,0000001.382s, 026.7C,00002191
2016-07-14 02:43:07 r, 20.24m,0000000001Hz,0000682208c,0000001.480s, 026.7C,00002191
2016-07-14 02:53:08 r, 20.19m,0000000001Hz,0000651611c,0000001.414s, 026.7C,00002191
2016-07-14 03:03:07 r, 20.13m,0000000000Hz,0000614488c,0000001.334s, 026.7C,00002191
2016-07-14 03:13:07 r, 20.02m,0000000000Hz,0000553886c,0000001.202s, 026.7C,00002191
2016-07-14 03:23:08 r, 20.07m,0000000001Hz,0000582368c,0000001.264s, 027.0C,00002191
2016-07-14 03:33:06 r, 19.76m,0000000001Hz,0000436823c,0000000.948s, 027.0C,00002191
2016-07-14 03:43:07 r, 19.80m,0000000001Hz,0000452119c,0000000.981s, 027.0C,00002191
2016-07-14 03:53:07 r, 19.58m,0000000001Hz,0000369566c,0000000.802s, 027.0C,00002191
2016-07-14 04:03:07 r, 19.27m,0000000002Hz,0000279670c,0000000.607s, 027.0C,00002191
2016-07-14 04:13:07 r, 18.64m,0000000003Hz,0000157378c,0000000.342s, 027.3C,00002191
2016-07-14 04:23:07 r, 17.84m,0000000006Hz,0000075705c,0000000.164s, 027.0C,00002191
2016-07-14 04:33:07 r, 16.56m,0000000019Hz,0000023081c,0000000.050s, 027.0C,00002191
2016-07-14 04:43:07 r, 15.22m,0000000068Hz,0000006718c,0000000.015s, 027.0C,00002191
2016-07-14 04:53:07 r, 14.19m,0000000178Hz,0000000000c,0000000.000s, 027.0C,00002191
2016-07-14 05:03:09 r, 12.31m,0000001010Hz,0000000000c,0000000.000s, 027.0C,00002191
2016-07-14 05:13:07 r, 10.54m,0000005126Hz,0000000000c,0000000.000s, 027.0C,00002191
2016-07-14 05:23:07 r, 09.29m,0000016275Hz,0000000000c,0000000.000s, 026.7C,00002191
2016-07-14 05:33:07 r, 08.19m,0000045047Hz,0000000000c,0000000.000s, 027.0C,00002191
2016-07-14 05:43:07 r, 07.60m,0000077435Hz,0000000000c,0000000.000s, 026.7C,00002191
2016-07-14 05:53:07 r, 07.17m,0000114490Hz,0000000000c,0000000.000s, 026.7C,00002191
2016-07-14 06:03:07 r, 06.53m,0000206924Hz,0000000000c,0000000.000s, 026.7C,00002191
2016-07-14 06:13:07 r, 05.99m,0000340378Hz,0000000000c,0000000.000s, 026.7C,00002191
2016-07-14 06:23:07 r, 00.00m,0000421151Hz,0000000000c,0000000.000s, 026.7C,00002191
2016-07-14 06:33:07 r, 00.00m,0000596067Hz,0000000000c,0000000.000s, 027.0C,00002191
2016-07-14 06:43:07 r, 00.00m,0000595955Hz,0000000000c,0000000.000s, 027.0C,00002191
2016-07-14 06:53:07 r, 00.00m,0000595966Hz,0000000000c,0000000.000s, 027.3C,00002191
2016-07-14 07:03:07 r, 00.00m,0000595981Hz,0000000000c,0000000.000s, 027.7C,00002191
2016-07-14 07:13:07 r, 00.00m,0000595882Hz,0000000000c,0000000.000s, 028.0C,00002191
2016-07-14 07:23:07 r, 00.00m,0000595876Hz,0000000000c,0000000.000s, 028.0C,00002191
2016-07-14 07:33:07 r, 00.00m,0000595919Hz,0000000000c,0000000.000s, 028.3C,00002191
2016-07-14 07:43:07 r, 00.00m,0000595879Hz,0000000000c,0000000.000s, 028.6C,00002191
2016-07-14 07:53:07 r, 00.00m,0000595829Hz,0000000000c,0000000.000s, 028.6C,00002191
2016-07-14 08:03:07 r, 00.00m,0000595765Hz,0000000000c,0000000.000s, 029.0C,00002191
2016-07-14 08:13:07 r, 00.00m,0000595791Hz,0000000000c,0000000.000s, 029.0C,00002191
2016-07-14 08:23:07 r, 00.00m,0000595748Hz,0000000000c,0000000.000s, 029.3C,00002191
2016-07-14 08:33:07 r, 00.00m,0000595715Hz,0000000000c,0000000.000s, 029.6C,00002191
2016-07-14 08:43:07 r, 00.00m,0000595569Hz,0000000000c,0000000.000s, 030.2C,00002191
2016-07-14 08:53:07 r, 00.00m,0000595654Hz,0000000000c,0000000.000s, 030.2C,00002191
2016-07-14 09:03:07 r, 00.00m,0000595548Hz,0000000000c,0000000.000s, 030.9C,00002191
2016-07-14 09:13:07 r, 00.00m,0000595540Hz,0000000000c,0000000.000s, 031.2C,00002191
2016-07-14 09:23:07 r, 00.00m,0000595332Hz,0000000000c,0000000.000s, 032.2C,00002191
2016-07-14 09:33:07 r, 00.00m,0000595205Hz,0000000000c,0000000.000s, 033.8C,00002191
2016-07-14 09:43:11 r, 00.00m,0000595029Hz,0000000000c,0000000.000s, 035.1C,00002191
2016-07-14 09:53:11 r, 00.00m,0000594973Hz,0000000000c,0000000.000s, 036.0C,00002191
2016-07-14 10:03:07 r, 00.00m,0000594974Hz,0000000000c,0000000.000s, 036.7C,00002191
2016-07-14 10:13:07 r, 00.00m,0000594638Hz,0000000000c,0000000.000s, 038.0C,00002191
2016-07-14 10:23:07 r, 00.00m,0000594327Hz,0000000000c,0000000.000s, 040.6C,00002191
2016-07-14 10:33:12 r, 00.00m,0000593871Hz,0000000000c,0000000.000s, 043.5C,00002191
2016-07-14 10:43:07 r, 00.00m,0000593551Hz,0000000000c,0000000.000s, 046.0C,00002191
2016-07-14 10:53:07 r, 00.00m,0000593348Hz,0000000000c,0000000.000s, 046.7C,00002191
2016-07-14 11:03:07 r, 00.00m,0000593382Hz,0000000000c,0000000.000s, 047.0C,00002191
2016-07-14 11:13:07 r, 00.00m,0000593427Hz,0000000000c,0000000.000s, 046.7C,00002191
2016-07-14 11:23:08 r, 00.00m,0000593951Hz,0000000000c,0000000.000s, 044.1C,00002191
2016-07-14 11:33:07 r, 00.00m,0000593864Hz,0000000000c,0000000.000s, 043.1C,00002191
2016-07-14 11:43:07 r, 00.00m,0000593943Hz,0000000000c,0000000.000s, 042.8C,00002191
2016-07-14 11:53:07 r, 00.00m,0000594030Hz,0000000000c,0000000.000s, 041.9C,00002191
2016-07-14 12:03:07 r, 00.00m,0000593937Hz,0000000000c,0000000.000s, 042.5C,00002191
2016-07-14 12:13:07 r, 00.00m,0000593615Hz,0000000000c,0000000.000s, 044.1C,00002191
2016-07-14 12:23:07 r, 00.00m,0000593207Hz,0000000000c,0000000.000s, 046.4C,00002191
2016-07-14 12:33:07 r, 00.00m,0000592776Hz,0000000000c,0000000.000s, 048.6C,00002191
2016-07-14 12:43:07 r, 00.00m,0000592921Hz,0000000000c,0000000.000s, 048.3C,00002191
2016-07-14 12:53:07 r, 00.00m,0000593142Hz,0000000000c,0000000.000s, 047.3C,00002191
2016-07-14 13:03:07 r, 00.00m,0000593175Hz,0000000000c,0000000.000s, 046.4C,00002191
2016-07-14 13:13:07 r, 00.00m,0000592782Hz,0000000000c,0000000.000s, 048.6C,00002191
2016-07-14 13:23:07 r, 00.00m,0000592825Hz,0000000000c,0000000.000s, 048.9C,00002191
2016-07-14 13:33:07 r, 00.00m,0000592679Hz,0000000000c,0000000.000s, 049.6C,00002191
2016-07-14 13:43:07 r, 00.00m,0000592815Hz,0000000000c,0000000.000s, 049.3C,00002191
2016-07-14 13:53:11 r, 00.00m,0000592886Hz,0000000000c,0000000.000s, 048.0C,00002191
2016-07-14 14:03:07 r, 00.00m,0000592388Hz,0000000000c,0000000.000s, 050.9C,00002191
2016-07-14 14:13:07 r, 00.00m,0000592289Hz,0000000000c,0000000.000s, 050.9C,00002191
2016-07-14 14:23:07 r, 00.00m,0000592799Hz,0000000000c,0000000.000s, 048.6C,00002191
2016-07-14 14:33:07 r, 00.00m,0000593295Hz,0000000000c,0000000.000s, 045.4C,00002191
2016-07-14 14:43:07 r, 00.00m,0000593078Hz,0000000000c,0000000.000s, 046.4C,00002191
2016-07-14 14:53:09 r, 00.00m,0000592853Hz,0000000000c,0000000.000s, 047.7C,00002191
2016-07-14 15:03:07 r, 00.00m,0000593258Hz,0000000000c,0000000.000s, 046.0C,00002191
2016-07-14 15:13:10 r, 00.00m,0000593173Hz,0000000000c,0000000.000s, 045.7C,00002191
2016-07-14 15:23:08 r, 00.00m,0000593024Hz,0000000000c,0000000.000s, 046.7C,00002191
2016-07-14 15:33:07 r, 00.00m,0000592806Hz,0000000000c,0000000.000s, 048.0C,00002191
2016-07-14 15:43:07 r, 00.00m,0000592537Hz,0000000000c,0000000.000s, 049.3C,00002191
2016-07-14 15:53:07 r, 00.00m,0000592662Hz,0000000000c,0000000.000s, 049.3C,00002191
2016-07-14 16:03:08 r, 00.00m,0000593179Hz,0000000000c,0000000.000s, 046.0C,00002191
2016-07-14 16:13:07 r, 00.00m,0000593120Hz,0000000000c,0000000.000s, 046.0C,00002191
2016-07-14 16:23:07 r, 00.00m,0000592886Hz,0000000000c,0000000.000s, 047.0C,00002191
2016-07-14 16:33:08 r, 00.00m,0000592889Hz,0000000000c,0000000.000s, 047.3C,00002191
2016-07-14 16:43:08 r, 00.00m,0000593147Hz,0000000000c,0000000.000s, 045.7C,00002191
2016-07-14 16:53:07 r, 00.00m,0000593179Hz,0000000000c,0000000.000s, 045.4C,00002191
2016-07-14 17:03:07 r, 00.00m,0000593201Hz,0000000000c,0000000.000s, 045.7C,00002191
2016-07-14 17:13:07 r, 00.00m,0000593086Hz,0000000000c,0000000.000s, 046.0C,00002191
2016-07-14 17:23:07 r, 00.00m,0000593121Hz,0000000000c,0000000.000s, 046.0C,00002191
2016-07-14 17:33:07 r, 00.00m,0000593336Hz,0000000000c,0000000.000s, 044.8C,00002191
2016-07-14 17:43:07 r, 00.00m,0000593620Hz,0000000000c,0000000.000s, 042.8C,00002191
2016-07-14 17:53:07 r, 00.00m,0000593780Hz,0000000000c,0000000.000s, 041.9C,00002191
2016-07-14 18:03:07 r, 00.00m,0000593729Hz,0000000000c,0000000.000s, 041.9C,00002191
2016-07-14 18:13:07 r, 00.00m,0000593848Hz,0000000000c,0000000.000s, 041.2C,00002191
2016-07-14 18:23:07 r, 00.00m,0000593886Hz,0000000000c,0000000.000s, 041.2C,00002191
2016-07-14 18:33:07 r, 00.00m,0000593821Hz,0000000000c,0000000.000s, 041.5C,00002191
2016-07-14 18:43:07 r, 00.00m,0000593863Hz,0000000000c,0000000.000s, 041.2C,00002191
2016-07-14 18:53:07 r, 00.00m,0000593972Hz,0000000000c,0000000.000s, 040.6C,00002191
2016-07-14 19:03:07 r, 00.00m,0000594142Hz,0000000000c,0000000.000s, 039.3C,00002191
2016-07-14 19:13:07 r, 00.00m,0000594296Hz,0000000000c,0000000.000s, 039.0C,00002191
2016-07-14 19:23:07 r, 00.00m,0000594241Hz,0000000000c,0000000.000s, 038.3C,00002191
2016-07-14 19:33:07 r, 00.00m,0000594399Hz,0000000000c,0000000.000s, 037.3C,00002191
2016-07-14 19:43:07 r, 00.00m,0000594534Hz,0000000000c,0000000.000s, 037.0C,00002191
2016-07-14 19:53:07 r, 00.00m,0000594531Hz,0000000000c,0000000.000s, 036.7C,00002191
2016-07-14 20:03:07 r, 00.00m,0000594726Hz,0000000000c,0000000.000s, 035.4C,00002191
2016-07-14 20:13:07 r, 05.92m,0000364332Hz,0000000000c,0000000.000s, 034.4C,00002191
2016-07-14 20:23:07 r, 00.00m,0000595013Hz,0000000000c,0000000.000s, 033.5C,00002191
2016-07-14 20:33:07 r, 00.00m,0000446867Hz,0000000000c,0000000.000s, 032.5C,00002191
2016-07-14 20:43:07 r, 00.00m,0000461476Hz,0000000000c,0000000.000s, 031.5C,00002191
2016-07-14 20:53:07 r, 05.89m,0000373606Hz,0000000000c,0000000.000s, 031.2C,00002191
2016-07-14 21:03:07 r, 06.18m,0000285450Hz,0000000000c,0000000.000s, 030.6C,00002191
2016-07-14 21:13:07 r, 06.86m,0000152864Hz,0000000000c,0000000.000s, 029.9C,00002191
2016-07-14 21:23:07 r, 07.34m,0000098165Hz,0000000000c,0000000.000s, 029.3C,00002191
2016-07-14 21:33:07 r, 07.97m,0000054861Hz,0000000000c,0000000.000s, 028.6C,00002191
2016-07-14 21:43:09 r, 08.78m,0000025881Hz,0000000000c,0000000.000s, 028.3C,00002191
2016-07-14 21:53:07 r, 10.26m,0000006653Hz,0000000000c,0000000.000s, 028.0C,00002191
2016-07-14 22:03:07 r, 11.69m,0000001791Hz,0000000000c,0000000.000s, 028.0C,00002191
2016-07-14 22:13:07 r, 13.20m,0000000445Hz,0000000000c,0000000.000s, 027.7C,00002191
2016-07-14 22:23:07 r, 14.70m,0000000110Hz,0000004185c,0000000.009s, 027.7C,00002191
2016-07-14 22:33:07 r, 16.02m,0000000033Hz,0000014032c,0000000.030s, 027.3C,00002191
2016-07-14 22:43:07 r, 17.01m,0000000013Hz,0000034995c,0000000.076s, 027.0C,00002191
2016-07-14 22:53:07 r, 17.74m,0000000007Hz,0000068917c,0000000.150s, 027.0C,00002191
2016-07-14 23:03:07 r, 18.22m,0000000004Hz,0000106591c,0000000.231s, 026.7C,00002191
2016-07-14 23:13:07 r, 18.50m,0000000003Hz,0000138219c,0000000.300s, 026.7C,00002191
2016-07-14 23:23:07 r, 18.63m,0000000003Hz,0000156555c,0000000.340s, 026.4C,00002191
2016-07-14 23:33:07 r, 18.79m,0000000002Hz,0000179489c,0000000.390s, 026.4C,00002191
2016-07-14 23:43:09 r, 18.97m,0000000002Hz,0000212435c,0000000.461s, 026.4C,00002191
2016-07-14 23:53:08 r, 19.04m,0000000002Hz,0000226599c,0000000.492s, 026.1C,00002191
